JST779 YPAD-YMML

Flight info

Callsign JST779
Flight time 1h 11m
Altitude 37000
Route BENDO3/23 BENDO Y12 ARBEY H119 ML
Aircraft A20N/M-SDE2E3FGHIRWXY/LB1

Departure

Time 2026-05-04 09:04
Airport Adelaide International Airport (YPAD)

Arrival

Time 2026-05-04 10:16
Airport Melbourne Airport (YMML)
Time Latitude Longitude Altitude Speed Heading
2026-05-04 08:52 -34.93855 138.53956 28 ft 0 kts 320°
2026-05-04 08:55 -34.93861 138.53962 29 ft 2 kts 320°
2026-05-04 08:57 -34.93934 138.53988 27 ft 1 kts 40°
2026-05-04 09:01 -34.93982 138.54227 28 ft 9 kts 140°
2026-05-04 09:01 -34.93990 138.54235 30 ft 0 kts 140°
2026-05-04 09:03 -34.94006 138.54250 28 ft 13 kts 146°
2026-05-04 09:04 -34.94102 138.54264 28 ft 15 kts 210°
2026-05-04 09:04 -34.94240 138.54074 27 ft 69 kts 229°
2026-05-04 09:04 -34.94733 138.53356 26 ft 147 kts 230°
2026-05-04 09:04 -34.95465 138.52321 678 ft 163 kts 231°
2026-05-04 09:05 -34.96171 138.51266 1747 ft 160 kts 232°
2026-05-04 09:05 -34.96886 138.50202 2609 ft 169 kts 230°
2026-05-04 09:05 -34.97679 138.49039 3222 ft 190 kts 230°
2026-05-04 09:05 -34.98576 138.47732 3875 ft 212 kts 230°
2026-05-04 09:06 -34.99570 138.46287 4591 ft 233 kts 230°
2026-05-04 09:07 -35.09975 138.46859 11021 ft 322 kts 124°
2026-05-04 09:08 -35.10751 138.49552 11448 ft 353 kts 101°
2026-05-04 09:08 -35.10743 138.52610 12260 ft 365 kts 89°
2026-05-04 09:08 -35.10473 138.55713 13204 ft 370 kts 87°
2026-05-04 09:08 -35.10176 138.58853 14082 ft 375 kts 88°
2026-05-04 09:09 -35.09907 138.62039 14855 ft 379 kts 89°
2026-05-04 09:09 -35.09669 138.65265 15647 ft 384 kts 89°
2026-05-04 09:09 -35.09448 138.68543 16400 ft 390 kts 90°
2026-05-04 09:09 -35.09234 138.71865 17174 ft 395 kts 90°
2026-05-04 09:10 -35.09092 138.74088 17667 ft 398 kts 90°
2026-05-04 09:10 -35.08960 138.77482 18382 ft 400 kts 97°
2026-05-04 09:10 -35.09369 138.80807 19053 ft 396 kts 108°
2026-05-04 09:10 -35.09994 138.84094 19756 ft 399 kts 109°
2026-05-04 09:11 -35.10663 138.87397 20451 ft 402 kts 110°
2026-05-04 09:11 -35.11367 138.90715 21094 ft 405 kts 110°
2026-05-04 09:11 -35.12089 138.94059 21765 ft 409 kts 110°
2026-05-04 09:11 -35.12812 138.97428 22396 ft 413 kts 110°
2026-05-04 09:12 -35.13545 139.00840 23031 ft 416 kts 110°
2026-05-04 09:12 -35.14285 139.04274 23659 ft 420 kts 110°
2026-05-04 09:14 -35.19691 139.29284 27010 ft 450 kts 109°
2026-05-04 09:14 -35.20488 139.32997 27451 ft 453 kts 109°
2026-05-04 09:14 -35.21288 139.36735 27866 ft 457 kts 109°
2026-05-04 09:14 -35.22096 139.40511 28288 ft 461 kts 109°
2026-05-04 09:15 -35.22909 139.44320 28675 ft 465 kts 109°
2026-05-04 09:15 -35.23727 139.48162 29068 ft 468 kts 109°
2026-05-04 09:15 -35.24714 139.51956 29444 ft 468 kts 116°
2026-05-04 09:15 -35.26033 139.55597 29808 ft 470 kts 119°
2026-05-04 09:17 -35.37114 139.85405 32714 ft 487 kts 118°
2026-05-04 09:18 -35.38510 139.89183 33113 ft 487 kts 118°
2026-05-04 09:18 -35.39906 139.92966 33509 ft 487 kts 118°
2026-05-04 09:18 -35.41300 139.96752 33894 ft 487 kts 118°
2026-05-04 09:18 -35.42698 140.00549 34194 ft 490 kts 118°
2026-05-04 09:19 -35.44098 140.04359 34497 ft 490 kts 118°
2026-05-04 09:19 -35.45499 140.08174 34796 ft 491 kts 118°
2026-05-04 09:19 -35.46901 140.11996 35087 ft 492 kts 118°
2026-05-04 09:19 -35.48301 140.15818 35364 ft 492 kts 118°
2026-05-04 09:20 -35.49708 140.19663 35659 ft 493 kts 118°
2026-05-04 09:20 -35.51116 140.23515 35858 ft 496 kts 117°
2026-05-04 09:20 -35.52526 140.27379 36118 ft 496 kts 117°
2026-05-04 09:20 -35.53936 140.31247 36383 ft 497 kts 117°
2026-05-04 09:21 -35.55347 140.35122 36645 ft 497 kts 117°
2026-05-04 09:21 -35.56758 140.39005 36879 ft 498 kts 117°
2026-05-04 09:21 -35.58171 140.42894 37081 ft 499 kts 117°
2026-05-04 09:21 -35.59588 140.46802 37081 ft 501 kts 117°
2026-05-04 09:22 -35.62414 140.54613 37078 ft 499 kts 117°
2026-05-04 09:22 -35.65232 140.62419 37077 ft 500 kts 117°
2026-05-04 09:23 -35.68054 140.70255 37074 ft 503 kts 117°
2026-05-04 09:23 -35.70859 140.78064 37075 ft 502 kts 117°
2026-05-04 09:25 -35.82074 141.09485 37048 ft 501 kts 117°
2026-05-04 09:26 -35.84879 141.17390 37053 ft 508 kts 116°
2026-05-04 09:26 -35.87698 141.25361 37061 ft 506 kts 116°
2026-05-04 09:27 -35.90507 141.33324 37057 ft 506 kts 116°
2026-05-04 09:27 -35.93320 141.41316 37053 ft 509 kts 116°
2026-05-04 09:28 -35.96130 141.49321 37052 ft 508 kts 116°
2026-05-04 09:28 -35.98931 141.57320 37046 ft 507 kts 116°
2026-05-04 09:29 -36.01720 141.65308 37040 ft 507 kts 116°
2026-05-04 09:29 -36.04505 141.73305 37037 ft 506 kts 116°
2026-05-04 09:30 -36.07286 141.81310 37053 ft 506 kts 116°
2026-05-04 09:30 -36.10060 141.89314 37028 ft 507 kts 116°
2026-05-04 09:31 -36.12832 141.97335 37025 ft 507 kts 116°
2026-05-04 09:31 -36.15602 142.05366 37031 ft 508 kts 116°
2026-05-04 09:32 -36.18384 142.13453 37034 ft 512 kts 116°
2026-05-04 09:34 -36.29417 142.45781 37021 ft 513 kts 115°
2026-05-04 09:34 -36.32178 142.53923 37017 ft 512 kts 115°
2026-05-04 09:35 -36.34934 142.62072 36997 ft 512 kts 115°
2026-05-04 09:35 -36.37683 142.70222 36993 ft 512 kts 115°
2026-05-04 09:37 -36.48657 143.03002 37012 ft 516 kts 115°
2026-05-04 09:38 -36.51415 143.11299 36687 ft 516 kts 115°
2026-05-04 09:38 -36.52764 143.15368 36444 ft 514 kts 115°
2026-05-04 09:38 -36.54122 143.19471 36199 ft 514 kts 115°
2026-05-04 09:39 -36.55482 143.23585 35964 ft 514 kts 115°
2026-05-04 09:39 -36.56843 143.27703 35724 ft 515 kts 114°
2026-05-04 09:39 -36.58206 143.31833 35315 ft 517 kts 114°
2026-05-04 09:39 -36.59567 143.35966 34687 ft 519 kts 114°
2026-05-04 09:40 -36.60944 143.40153 33889 ft 522 kts 114°
2026-05-04 09:40 -36.62321 143.44349 32964 ft 524 kts 114°
2026-05-04 09:40 -36.63701 143.48559 32069 ft 524 kts 114°
2026-05-04 09:40 -36.65075 143.52751 31179 ft 524 kts 113°
2026-05-04 09:41 -36.66444 143.56939 30573 ft 518 kts 113°
2026-05-04 09:42 -36.75491 143.84764 26263 ft 471 kts 112°
2026-05-04 09:43 -36.76710 143.88532 25685 ft 466 kts 112°
2026-05-04 09:43 -36.77913 143.92257 25114 ft 460 kts 112°
2026-05-04 09:43 -36.79101 143.95939 24542 ft 455 kts 112°
2026-05-04 09:43 -36.80276 143.99586 23954 ft 451 kts 112°
2026-05-04 09:44 -36.81436 144.03194 23369 ft 446 kts 112°
2026-05-04 09:44 -36.82581 144.06757 22798 ft 439 kts 112°
2026-05-04 09:44 -36.83707 144.10266 22246 ft 432 kts 112°
2026-05-04 09:46 -36.91169 144.33628 18528 ft 399 kts 112°
2026-05-04 09:46 -36.92245 144.36803 17966 ft 395 kts 118°
2026-05-04 09:46 -36.93640 144.39714 17461 ft 387 kts 128°
2026-05-04 09:47 -36.95323 144.42303 16957 ft 381 kts 134°
2026-05-04 09:47 -36.97065 144.44772 16457 ft 376 kts 134°
2026-05-04 09:49 -37.08734 144.61499 13107 ft 355 kts 134°
2026-05-04 09:49 -37.10369 144.63849 12631 ft 351 kts 134°
2026-05-04 09:49 -37.11967 144.66147 12173 ft 348 kts 134°
2026-05-04 09:51 -37.23244 144.74850 10305 ft 306 kts 173°
2026-05-04 09:51 -37.25300 144.75403 10109 ft 297 kts 172°
2026-05-04 09:51 -37.27103 144.75896 10003 ft 286 kts 173°
2026-05-04 09:51 -37.29008 144.76407 9667 ft 283 kts 173°
2026-05-04 09:52 -37.30927 144.76909 9372 ft 277 kts 174°
2026-05-04 09:52 -37.32800 144.77398 9059 ft 273 kts 174°
2026-05-04 09:52 -37.34645 144.77761 8823 ft 263 kts 178°
2026-05-04 09:52 -37.36564 144.78076 8611 ft 292 kts 178°
2026-05-04 09:53 -37.38584 144.78421 8377 ft 292 kts 177°
2026-05-04 09:53 -37.40583 144.78777 8138 ft 290 kts 177°
2026-05-04 09:53 -37.42583 144.79142 7912 ft 291 kts 177°
2026-05-04 09:53 -37.44579 144.79498 7684 ft 288 kts 179°
2026-05-04 09:54 -37.46548 144.79463 7464 ft 280 kts 195°
2026-05-04 09:54 -37.48391 144.78794 7241 ft 274 kts 207°
2026-05-04 09:54 -37.50171 144.77931 7026 ft 273 kts 207°
2026-05-04 09:54 -37.51347 144.77370 6873 ft 273 kts 206°
2026-05-04 09:55 -37.53718 144.76251 6596 ft 270 kts 207°
2026-05-04 09:55 -37.55473 144.75424 6390 ft 270 kts 207°
2026-05-04 09:55 -37.56641 144.74871 6239 ft 271 kts 207°
2026-05-04 09:55 -37.59013 144.73920 5990 ft 269 kts 197°
2026-05-04 09:56 -37.60259 144.73707 5973 ft 276 kts 190°
2026-05-04 09:56 -37.62173 144.73589 5963 ft 275 kts 189°
2026-05-04 09:56 -37.64072 144.73462 5887 ft 269 kts 189°
2026-05-04 09:56 -37.65903 144.73337 5665 ft 258 kts 190°
2026-05-04 09:57 -37.67683 144.73211 5192 ft 255 kts 190°
2026-05-04 09:57 -37.69448 144.73082 4672 ft 254 kts 190°
2026-05-04 09:57 -37.71186 144.72960 4409 ft 248 kts 190°
2026-05-04 09:57 -37.72938 144.72904 4188 ft 252 kts 188°
2026-05-04 09:58 -37.74685 144.72895 3969 ft 250 kts 188°
2026-05-04 09:58 -37.76429 144.72893 3745 ft 251 kts 188°
2026-05-04 09:58 -37.78166 144.72883 3528 ft 248 kts 188°
2026-05-04 10:00 -37.90360 144.74146 2965 ft 253 kts 181°
2026-05-04 10:00 -37.92095 144.74366 2951 ft 253 kts 181°
2026-05-04 10:02 -38.04438 144.75838 2930 ft 257 kts 181°
2026-05-04 10:04 -38.15250 144.81348 2926 ft 278 kts 91°
2026-05-04 10:04 -38.14957 144.83717 2923 ft 269 kts 60°
2026-05-04 10:04 -38.13885 144.85556 2926 ft 255 kts 33°
2026-05-04 10:04 -38.12532 144.86991 2921 ft 254 kts 32°
2026-05-04 10:05 -38.11149 144.88426 2924 ft 257 kts 32°
2026-05-04 10:05 -38.09768 144.89822 2920 ft 249 kts 24°
2026-05-04 10:05 -38.08202 144.90470 2928 ft 232 kts 353°
2026-05-04 10:05 -38.06604 144.90258 2935 ft 229 kts 342°
2026-05-04 10:06 -38.05064 144.89856 2935 ft 224 kts 341°
2026-05-04 10:06 -38.03518 144.89480 2935 ft 228 kts 343°
2026-05-04 10:06 -38.01985 144.89191 2932 ft 216 kts 345°
2026-05-04 10:08 -37.94265 144.88197 2941 ft 179 kts 345°
2026-05-04 10:08 -37.93022 144.88042 2949 ft 179 kts 345°
2026-05-04 10:08 -37.91790 144.87894 2951 ft 176 kts 345°
2026-05-04 10:08 -37.90567 144.87746 2955 ft 177 kts 345°
2026-05-04 10:09 -37.89329 144.87594 2954 ft 179 kts 345°
2026-05-04 10:09 -37.88089 144.87444 2949 ft 178 kts 345°
2026-05-04 10:09 -37.86886 144.87305 2840 ft 167 kts 345°
2026-05-04 10:09 -37.85773 144.87179 2543 ft 159 kts 345°
2026-05-04 10:10 -37.84649 144.87034 2461 ft 162 kts 345°
2026-05-04 10:10 -37.83535 144.86897 2458 ft 153 kts 344°
2026-05-04 10:10 -37.82589 144.86788 2452 ft 124 kts 340°
2026-05-04 10:10 -37.81758 144.86640 2302 ft 116 kts 339°
2026-05-04 10:11 -37.80968 144.86477 2118 ft 115 kts 341°
2026-05-04 10:11 -37.80165 144.86389 1869 ft 115 kts 345°
2026-05-04 10:11 -37.79387 144.86239 1713 ft 111 kts 341°
2026-05-04 10:11 -37.78602 144.86051 1603 ft 115 kts 341°
2026-05-04 10:12 -37.77827 144.85914 1518 ft 115 kts 343°
2026-05-04 10:12 -37.77039 144.85769 1339 ft 116 kts 342°
2026-05-04 10:12 -37.76188 144.85572 1309 ft 147 kts 344°
2026-05-04 10:12 -37.75178 144.85375 1191 ft 136 kts 347°
2026-05-04 10:13 -37.74323 144.85216 1081 ft 116 kts 348°
2026-05-04 10:13 -37.73484 144.85034 981 ft 142 kts 350°
2026-05-04 10:13 -37.72459 144.84828 839 ft 142 kts 353°
2026-05-04 10:13 -37.71573 144.84650 755 ft 119 kts 353°
2026-05-04 10:14 -37.70642 144.84482 685 ft 155 kts 352°
2026-05-04 10:14 -37.69647 144.84289 592 ft 136 kts 353°
2026-05-04 10:16 -37.66858 144.83905 390 ft 1 kts 23°
2026-05-04 10:16 -37.66853 144.83907 391 ft 2 kts 23°
2026-05-04 10:16 -37.66826 144.83922 391 ft 13 kts 22°
2026-05-04 10:16 -37.66726 144.84021 393 ft 22 kts 69°
2026-05-04 10:17 -37.66792 144.84186 392 ft 26 kts 160°
2026-05-04 10:17 -37.66982 144.84225 386 ft 20 kts 169°
2026-05-04 10:19 -37.66997 144.84229 386 ft 0 kts 169°
2026-05-04 10:19 -37.67130 144.84257 383 ft 26 kts 170°
2026-05-04 10:19 -37.67203 144.84361 383 ft 16 kts 82°
2026-05-04 10:20 -37.67193 144.84513 385 ft 18 kts 89°
2026-05-04 10:20 -37.67202 144.84674 387 ft 18 kts 125°
2026-05-04 10:20 -37.67257 144.84710 386 ft 0 kts 169°